Weather History for Crystal River, FL

Change the Weather History Date:

Tuesday, October 23, 2012

  Actual Average (KBKV) Record (KBKV)
Temperature  
Mean Temperature 73 °F -  
Max Temperature 86 °F 80 °F 88 °F (2007)
Min Temperature 60 °F 56 °F 48 °F (1999)
Cooling Degree Days 8    
Growing Degree Days 23 (Base 50)    
Moisture  
Dew Point 61 °F    
Average Humidity 72    
Maximum Humidity 100    
Minimum Humidity 45    
Precipitation  
Precipitation 0.00 in - - ()
Sea Level Pressure  
Sea Level Pressure 30.05 in    
Wind  
Wind Speed 5 mph (ENE)    
Max Wind Speed 15 mph    
Max Gust Speed 18 mph    
Visibility 10 miles    
Events      
Averages and records for this station are not official NWS values.
T = Trace of Precipitation, MM = Missing Value Source: NWS Daily Summary

Daily Weather History Graph

Daily Weather History Graph

Search for Another Location

Airport:

Trip Planner

Search our weather history database for the weather conditions in past years. The results will help you decide how hot, cold, wet, or windy it might be!

Date:

Astronomy

Oct. 23, 2012 Rise Set
Actual Time 7:36 AM EDT 6:51 PM EDT
Civil Twilight 7:12 AM EDT 7:16 PM EDT
Nautical Twilight 6:44 AM EDT 7:43 PM EDT
Astronomical Twilight 6:17 AM EDT 8:11 PM EDT
Moon 3:10 PM EDT (10/23) 1:55 AM EDT (10/23)
Length of Visible Light 12h 03m
Length of Day
11h 15m
Waxing Gibbous, 66% of the Moon is Illuminated
Oct 23
Waxing Gibbous
Oct 29
Full
Nov 6
Last Quarter
Nov 13
New
Nov 20
First Quarter

Hourly Weather History & Observations

Time (EDT) Temp. Heat Index Dew Point Humidity Pressure Visibility Wind Dir Wind Speed Gust Speed Precip Events Conditions
12:15 AM 64.4 °F - 59.0 °F 83% 30.11 in 10.0 mi NE 4.6 mph - N/A   Clear
12:35 AM 64.4 °F - 59.0 °F 83% 30.10 in 10.0 mi NE 4.6 mph - N/A   Clear
1:15 AM 64.4 °F - 59.0 °F 83% 30.09 in 10.0 mi NE 4.6 mph - N/A   Clear
1:35 AM 62.6 °F - 59.0 °F 88% 30.09 in 10.0 mi Calm Calm - N/A   Clear
2:15 AM 62.6 °F - 60.8 °F 94% 30.07 in 10.0 mi Calm Calm - N/A   Clear
2:35 AM 62.6 °F - 60.8 °F 94% 30.07 in 10.0 mi Calm Calm - N/A   Clear
2:55 AM 62.6 °F - 59.0 °F 88% 30.06 in 10.0 mi Calm Calm - N/A   Clear
3:15 AM 60.8 °F - 59.0 °F 94% 30.06 in 10.0 mi NNE 3.5 mph - N/A   Clear
3:55 AM 60.8 °F - 59.0 °F 94% 30.06 in 10.0 mi Calm Calm - N/A   Clear
4:15 AM 60.8 °F - 59.0 °F 94% 30.05 in 10.0 mi NE 3.5 mph - N/A   Clear
4:35 AM 60.8 °F - 59.0 °F 94% 30.04 in 10.0 mi NE 3.5 mph - N/A   Clear
4:55 AM 60.8 °F - 59.0 °F 94% 30.05 in 10.0 mi Calm Calm - N/A   Clear
5:15 AM 60.8 °F - 59.0 °F 94% 30.05 in 10.0 mi Calm Calm - N/A   Clear
5:35 AM 60.8 °F - 59.0 °F 94% 30.05 in 10.0 mi Calm Calm - N/A   Clear
6:15 AM 60.8 °F - 59.0 °F 94% 30.05 in 10.0 mi Calm Calm - N/A   Scattered Clouds
6:35 AM 60.8 °F - 59.0 °F 94% 30.06 in 10.0 mi Calm Calm - N/A   Clear
6:55 AM 60.8 °F - 60.8 °F 100% 30.06 in 10.0 mi Calm Calm - N/A   Scattered Clouds
7:35 AM 60.8 °F - 60.8 °F 100% 30.06 in 10.0 mi Calm Calm - N/A   Scattered Clouds
7:55 AM 62.6 °F - 60.8 °F 94% 30.06 in 10.0 mi NE 4.6 mph - N/A   Scattered Clouds
8:15 AM 62.6 °F - 60.8 °F 94% 30.06 in 10.0 mi NE 3.5 mph - N/A   Clear
8:35 AM 64.4 °F - 60.8 °F 88% 30.07 in 10.0 mi Calm Calm - N/A   Clear
8:55 AM 66.2 °F - 62.6 °F 88% 30.07 in 10.0 mi NE 3.5 mph - N/A   Clear
9:15 AM 69.8 °F - 62.6 °F 78% 30.07 in 10.0 mi ENE 3.5 mph - N/A   Clear
9:35 AM 71.6 °F - 62.6 °F 73% 30.07 in 10.0 mi ENE 6.9 mph - N/A   Clear
9:55 AM 73.4 °F - 62.6 °F 69% 30.07 in 10.0 mi ENE 4.6 mph - N/A   Clear
10:15 AM 75.2 °F - 62.6 °F 65% 30.08 in 10.0 mi ENE 8.1 mph - N/A   Clear
10:35 AM 77.0 °F - 62.6 °F 61% 30.07 in 10.0 mi East 6.9 mph 16.1 mph N/A   Clear
11:15 AM 80.6 °F 81.5 °F 60.8 °F 51% 30.08 in 10.0 mi East 11.5 mph 16.1 mph N/A   Clear
11:55 AM 80.6 °F 81.5 °F 60.8 °F 51% 30.07 in 10.0 mi ENE 10.4 mph 18.4 mph N/A   Clear
12:15 PM 82.4 °F 82.9 °F 60.8 °F 48% 30.07 in 10.0 mi East 9.2 mph 18.4 mph N/A   Clear
12:35 PM 82.4 °F 83.4 °F 62.6 °F 51% 30.06 in 10.0 mi ENE 9.2 mph - N/A   Clear
12:55 PM 82.4 °F 83.4 °F 62.6 °F 51% 30.06 in 10.0 mi NE 11.5 mph 18.4 mph N/A   Mostly Cloudy
1:15 PM 82.4 °F 83.4 °F 62.6 °F 51% 30.05 in 10.0 mi East 11.5 mph - N/A   Mostly Cloudy
1:35 PM 82.4 °F 83.4 °F 62.6 °F 51% 30.04 in 10.0 mi East 12.7 mph 17.3 mph N/A   Overcast
1:55 PM 82.4 °F 83.4 °F 62.6 °F 51% 30.03 in 10.0 mi ENE 15.0 mph - N/A   Scattered Clouds
2:15 PM 84.2 °F 85.0 °F 62.6 °F 48% 30.02 in 10.0 mi ENE 10.4 mph 18.4 mph N/A   Scattered Clouds
2:35 PM 84.2 °F 85.0 °F 62.6 °F 48% 30.02 in 10.0 mi ENE 10.4 mph 18.4 mph N/A   Mostly Cloudy
2:55 PM 82.4 °F 83.4 °F 62.6 °F 51% 30.01 in 10.0 mi ENE 9.2 mph - N/A   Scattered Clouds
3:15 PM 84.2 °F 85.0 °F 62.6 °F 48% 30.00 in 10.0 mi ENE 9.2 mph 16.1 mph N/A   Scattered Clouds
3:55 PM 86.0 °F 86.6 °F 62.6 °F 45% 30.00 in 10.0 mi ENE 13.8 mph 18.4 mph N/A   Mostly Cloudy
4:15 PM 84.2 °F 85.0 °F 62.6 °F 48% 29.99 in 10.0 mi ENE 11.5 mph 17.3 mph N/A   Scattered Clouds
4:35 PM 82.4 °F 83.4 °F 62.6 °F 51% 29.99 in 10.0 mi East 5.8 mph - N/A   Scattered Clouds
4:55 PM 84.2 °F 85.0 °F 62.6 °F 48% 29.99 in 10.0 mi East 10.4 mph - N/A   Clear
5:15 PM 82.4 °F 82.9 °F 60.8 °F 48% 29.99 in 10.0 mi NE 10.4 mph - N/A   Scattered Clouds
5:35 PM 82.4 °F 83.4 °F 62.6 °F 51% 30.00 in 10.0 mi East 11.5 mph 17.3 mph N/A   Clear
5:55 PM 80.6 °F 81.8 °F 62.6 °F 54% 30.00 in 10.0 mi ENE 10.4 mph 17.3 mph N/A   Clear
6:15 PM 80.6 °F 81.8 °F 62.6 °F 54% 30.00 in 10.0 mi ENE 10.4 mph - N/A   Clear
6:35 PM 78.8 °F - 60.8 °F 54% 30.01 in 10.0 mi ENE 9.2 mph - N/A   Clear
6:55 PM 77.0 °F - 60.8 °F 57% 30.02 in 10.0 mi ENE 8.1 mph - N/A   Clear
7:15 PM 77.0 °F - 60.8 °F 57% 30.03 in 10.0 mi ENE 6.9 mph - N/A   Clear
7:35 PM 77.0 °F - 60.8 °F 57% 30.03 in 10.0 mi ENE 8.1 mph - N/A   Clear
7:55 PM 73.4 °F - 60.8 °F 65% 30.04 in 10.0 mi ENE 5.8 mph - N/A   Clear
8:15 PM 73.4 °F - 60.8 °F 65% 30.04 in 10.0 mi ENE 8.1 mph - N/A   Clear
8:35 PM 71.6 °F - 60.8 °F 69% 30.05 in 10.0 mi ENE 5.8 mph - N/A   Clear
8:55 PM 71.6 °F - 62.6 °F 73% 30.05 in 10.0 mi East 4.6 mph - N/A   Clear
9:15 PM 71.6 °F - 62.6 °F 73% 30.05 in 10.0 mi ENE 5.8 mph - N/A   Clear
9:35 PM 69.8 °F - 62.6 °F 78% 30.06 in 10.0 mi ENE 4.6 mph - N/A   Clear
9:55 PM 68.0 °F - 62.6 °F 83% 30.06 in 10.0 mi ENE 4.6 mph - N/A   Clear
10:15 PM 68.0 °F - 62.6 °F 83% 30.06 in 10.0 mi ENE 3.5 mph - N/A   Clear
10:35 PM 68.0 °F - 62.6 °F 83% 30.06 in 10.0 mi ENE 3.5 mph - N/A   Clear
10:55 PM 68.0 °F - 62.6 °F 83% 30.06 in 10.0 mi ENE 4.6 mph - N/A   Clear
11:15 PM 68.0 °F - 62.6 °F 83% 30.07 in 10.0 mi NE 4.6 mph - N/A   Clear
11:35 PM 66.2 °F - 62.6 °F 88% 30.07 in 10.0 mi ENE 3.5 mph - N/A   Clear
11:55 PM 66.2 °F - 62.6 °F 88% 30.06 in 10.0 mi East 3.5 mph - N/A   Clear